{"data":{"norad_id":67437,"intl_designator":"2026-007C","name":"HULIANWANG DIGUI-139","alt_names":[],"object_type":"PAYLOAD","status":"ACTIVE","operator":null,"country":"PRC","launch_date":"2026-01-13","launch_site_code":"WSC","launch_vehicle":null,"mission":null,"orbit_class":"UNKNOWN","rcs_meters":null,"size_class":null,"mass_kg":null,"dimensions":null,"purposes":[],"wikipedia_slug":null,"has_3d_model":false,"image_url":null,"decayed_at":null,"tle_current":{"epoch":"2026-09-20T22:37:16.339008Z","epoch_age_seconds":61929,"freshness":"FRESH","line1":"1 67437U 26007C   26263.94255022 -.00000104  00000+0  44091-4 0  9997","line2":"2 67437  50.0016 102.4185 0000223  11.4384 348.6493 13.29330592 33527","mean_motion":13.29330592,"eccentricity":2.23e-5,"inclination_deg":50.0016,"raan_deg":102.4185,"arg_perigee_deg":11.4384,"mean_anomaly_deg":348.6493,"bstar":4.4091e-5,"rev_number":3352,"period_min":108.32519831154,"perigee_km":1149.1213751875,"apogee_km":1149.4570983976,"semimajor_km":7527.4262367926,"source":"CELESTRAK","updated_at":"2026-09-21T09:00:16.633170Z"}}}